[[{"header":{"parameterUnit":"m.s-1","parameterCategory":1,"la1":30.2991,"la2":30.254,"lo1":-89.0895,"lo2":-89.0444,"dy":0.0017,"dx":0.0017,"nx":28,"ny":28,"refTime":"2023-08-02T21:00:00:Z","depth":0,"parameterNumber":2,"parameterNumberName":"U-component_of_WINDS"},"data":[0,0,0,0,0,0,0,0,0,0,0,0,0,0,0,0,0,0,0,0,0,0,0,0,0,0,0,0,0,0,0,0,0,0,0,0,0,0,0,0,0,0,0,0,0,0,0,0,0,0,0,0,0,0,0,0,0,0,5.0192,5.0193,0,5.0242,5.0242,5.0243,5.0148,5.0145,5.0142,5.0139,5.019,5.0194,5.0198,0,0,0,0,0,0,0,0,0,0,0,0,0,5.0013,5.0017,5.0192,5.0193,5.0193,5.0242,5.0242,5.0243,5.0149,5.0145,5.0141,5.0138,5.0188,5.0193,5.0198,0,0,0,0,0,0,0,0,0,0,0,0,0,5.008,5.0018,5.0192,5.0152,5.0149,5.0242,5.0242,5.0243,5.015,5.0145,5.014,5.0136,5.0186,5.0193,5.0199,5.0332,0,0,5.0218,5.0221,0,0,0,0,0,0,0,0,5.0076,5.0087,5.0158,5.0155,5.0152,5.0184,5.0198,5.0273,5.0151,5.015,5.0139,5.0134,5.0191,5.0197,5.0217,5.0335,5.0337,5.0219,5.0223,5.0226,5.0227,0,0,0,0,0,0,0,5.0072,5.0084,5.0212,5.0159,5.0155,5.0131,5.0135,5.0212,5.0196,5.0149,5.0143,5.015,5.0189,5.0211,5.0217,5.0337,5.0219,5.0224,5.0228,5.0231,5.0562,5.0567,0,0,0,0,0,0,5.0072,5.0081,5.021,5.0213,5.0102,5.0138,5.0143,5.0179,5.0195,5.0193,5.0154,5.0145,5.0202,5.021,5.0219,5.0372,5.0226,5.0232,5.0235,5.0557,5.0563,5.0569,0,0,0,0,0,0,5.0069,5.0085,5.0208,5.0145,5.0159,5.0146,5.0187,5.0182,5.0203,5.0198,5.0195,5.0179,5.0199,5.021,5.0304,5.0372,5.0234,5.024,5.0551,5.0559,5.0566,5.0682,0,0,0,0,0,0,5.0064,5.0084,5.0135,5.0147,5.0163,5.0294,5.0191,5.0186,5.0215,5.0204,5.0221,5.0219,5.0196,5.0295,5.031,5.0379,5.0245,5.0545,5.0555,5.0564,5.0672,5.0693,5.071,0,0,0,0,0,5.0058,5.0167,5.0139,5.0155,5.0227,5.0298,5.0307,5.0277,5.0221,5.0271,5.0267,5.0219,5.0363,5.0305,5.0322,5.0393,5.0541,5.0552,5.0563,5.0663,5.0688,5.071,0,0,0,0,0,0,5.0165,5.0168,5.0136,5.0252,5.0275,5.0282,5.0344,5.0306,5.0345,5.0333,5.0296,5.03,5.0401,5.0407,5.0342,5.0521,5.0442,5.0457,5.0513,5.0537,5.0555,5.055,5.0251,0,0,0,0,0,5.0202,5.0259,5.0259,5.0362,5.0375,5.0358,5.0388,5.0363,5.0385,5.0395,5.0398,5.0421,5.0471,5.0505,5.0551,5.0673,5.0673,5.0731,5.075,5.0765,5.0778,5.0839,5.0863,5.0606,5.0605,5.0605,0,0,5.0278,5.0287,5.0326,5.0383,5.0398,5.0457,5.0367,5.0434,5.0477,5.0405,5.0492,5.0496,5.0519,5.0627,5.0674,5.0635,5.0849,5.078,5.0792,5.0796,5.0853,5.0877,5.0899,5.0613,5.0612,5.0611,0,0,5.0448,5.0462,5.0547,5.0563,5.0586,5.0574,5.0595,5.0606,5.0605,5.0693,5.0639,5.0689,5.0778,5.0795,5.0815,5.0989,5.0944,5.1005,5.1104,5.1164,5.1184,5.1201,5.1259,5.1281,5.1018,5.1018,5.1019,0,5.054,5.0628,5.0595,5.0665,5.069,5.0627,5.0711,5.0729,5.0766,5.0784,5.074,5.0846,5.0858,5.0967,5.1009,5.1029,5.1049,5.1001,5.1184,5.1201,5.1217,5.1272,5.1294,5.1025,5.1025,5.1024,5.1023,0,5.0738,5.0799,5.0865,5.0901,5.0934,5.1011,5.0988,5.1026,5.0998,5.099,5.1078,5.109,5.1135,5.116,5.1135,5.1264,5.1238,5.119,5.1109,5.1249,5.1299,5.1321,5.1035,5.1033,5.1031,5.1029,0,0,5.0975,5.0991,5.1015,5.1029,5.1049,5.1095,5.1169,5.1212,5.1243,5.1271,5.1329,5.1404,5.1358,5.1381,5.1357,5.1411,5.1542,5.1354,5.1354,5.1385,5.1681,5.1715,5.174,5.1514,5.1518,5.1521,5.1678,0,5.1139,5.1265,5.1236,5.1359,5.1413,5.1354,5.1417,5.1435,5.143,5.1474,5.1468,5.152,5.1458,5.147,5.1521,5.1516,5.16,5.1504,5.1565,5.1567,5.1557,5.1767,5.1803,5.1951,5.1698,5.1701,5.1704,0,5.1348,5.1382,5.151,5.1517,5.1539,5.1597,5.1632,5.1677,5.1696,5.1687,5.1713,5.1677,5.1748,5.1669,5.1764,5.1699,5.1722,5.1723,5.1728,5.173,5.1641,5.177,5.1998,5.2018,5.1735,5.1733,5.1731,0,5.1503,5.1581,5.1666,5.168,5.1693,5.1734,5.1741,5.1756,5.1782,5.1814,5.1831,5.1871,5.1892,5.1924,5.1899,5.1845,5.1997,5.1917,5.1989,5.199,5.2021,5.2019,5.2252,5.2043,5.2043,5.2043,5.2042,0,5.1687,5.1767,5.1735,5.1787,5.1873,5.184,5.1927,5.1927,5.194,5.1989,5.1942,5.199,5.1956,5.2001,5.1983,5.2062,5.2073,5.2066,5.206,5.2068,5.2069,5.2081,5.2068,5.2048,5.2047,5.2046,5.2045,0,5.1873,5.1856,5.1944,5.1948,5.1951,5.2014,5.2017,5.2064,5.2055,5.2119,5.2132,5.2117,5.2166,5.2146,5.22,5.2187,5.2287,5.2269,5.228,5.2274,5.2346,5.2338,5.2591,5.2621,5.2397,5.24,5.2401,0,5.199,5.205,5.2059,5.2089,5.2099,5.2148,5.2175,5.2144,5.2174,5.2198,5.2242,5.2288,5.2322,5.2404,5.2397,5.2437,5.2417,5.2503,5.2422,5.2428,5.2413,5.2408,5.2412,5.2518,5.2521,5.2523,5.2525,0,5.2198,5.2186,5.2226,5.2263,5.2296,5.2323,5.2347,5.2374,5.2344,5.238,5.2429,5.2456,5.2509,5.2553,5.2588,5.2594,5.2554,5.255,5.2568,5.2576,5.2578,5.2573,5.2319,5.2544,5.2542,5.254,5.2539,5.2539,5.2351,5.2399,5.2412,5.2457,5.2472,5.2494,5.2537,5.2533,5.2574,5.2613,5.2594,5.265,5.2665,5.2707,5.2719,5.2762,5.2728,5.2755,5.2761,5.2767,5.2775,5.2574,5.2768,5.2768,5.2767,5.2767,5.2766,0,5.2552,5.2557,5.26,5.2633,5.2668,5.2627,5.2651,5.2682,5.2733,5.275,5.2784,5.2839,5.2882,5.2878,5.2917,5.2952,5.2934,5.2962,5.2957,5.2959,5.2805,5.2784,5.2976,5.2976,5.2976,5.2976,5.2976,5.2976,5.2661,5.2739,5.2728,5.2812,5.2816,5.2871,5.2887,5.2906,5.2919,5.2983,5.3018,5.3015,5.3023,5.3061,5.3098,5.3095,5.311,5.3145,5.3135,5.2991,5.297,5.295,5.2929,5.3149,5.315,5.3284,5.3286,5.3287]},{"header":{"parameterUnit":"m.s-1","parameterCategory":1,"la1":30.2991,"la2":30.254,"lo1":-89.0895,"lo2":-89.0444,"dy":0.0017,"dx":0.0017,"nx":28,"ny":28,"refTime":"2023-08-02T21:00:00:Z","depth":0,"parameterNumber":3,"parameterNumberName":"V-component_of_WINDS"},"data":[0,0,0,0,0,0,0,0,0,0,0,0,0,0,0,0,0,0,0,0,0,0,0,0,0,0,0,0,0,0,0,0,0,0,0,0,0,0,0,0,0,0,0,0,0,0,0,0,0,0,0,0,0,0,0,0,0,0,4.1263,4.1265,0,4.1399,4.14,4.1402,4.1413,4.1412,4.141,4.1409,4.1546,4.155,4.1555,0,0,0,0,0,0,0,0,0,0,0,0,0,4.1009,4.1014,4.1263,4.1265,4.1266,4.1399,4.1401,4.1402,4.1414,4.1412,4.141,4.1408,4.1544,4.155,4.1556,0,0,0,0,0,0,0,0,0,0,0,0,0,4.113,4.1016,4.1263,4.1288,4.1292,4.1398,4.1401,4.1403,4.1414,4.1412,4.141,4.1408,4.1542,4.1549,4.1557,4.1647,0,0,4.158,4.1583,0,0,0,0,0,0,0,0,4.1123,4.1139,4.1283,4.1286,4.1291,4.1387,4.1361,4.1485,4.1415,4.1367,4.1409,4.1407,4.1494,4.1506,4.1536,4.1653,4.1659,4.158,4.1585,4.1588,4.159,0,0,0,0,0,0,0,4.1115,4.1133,4.1317,4.1285,4.129,4.1291,4.1306,4.1385,4.1441,4.1371,4.1373,4.1389,4.1496,4.1529,4.1539,4.1661,4.158,4.1587,4.1591,4.1594,4.1856,4.1858,0,0,0,0,0,0,4.1102,4.1126,4.1312,4.1321,4.12,4.1298,4.1314,4.1358,4.1441,4.1451,4.139,4.1389,4.1517,4.153,4.1544,4.1653,4.1588,4.1595,4.1599,4.1854,4.1857,4.1859,0,0,0,0,0,0,4.1096,4.1118,4.1307,4.1224,4.1248,4.1304,4.1354,4.1362,4.1395,4.1455,4.1465,4.1413,4.1516,4.1534,4.1621,4.1658,4.1598,4.1605,4.1851,4.1854,4.1858,4.1873,0,0,0,0,0,0,4.1089,4.1116,4.1152,4.1225,4.1252,4.1383,4.1356,4.1366,4.1408,4.1407,4.1479,4.1489,4.1515,4.1609,4.1628,4.1667,4.1611,4.1848,4.1852,4.1857,4.1869,4.1877,4.1883,0,0,0,0,0,4.108,4.1151,4.1154,4.1176,4.1299,4.1385,4.14,4.143,4.1411,4.1446,4.1485,4.1487,4.1651,4.1618,4.1639,4.1681,4.1845,4.1851,4.1856,4.1866,4.1875,4.1883,0,0,0,0,0,0,4.1081,4.1161,4.1165,4.1262,4.1316,4.1386,4.1432,4.1439,4.15,4.1496,4.1529,4.1546,4.1631,4.1665,4.1627,4.1771,4.1746,4.1756,4.1746,4.1755,4.1762,4.1751,4.1617,0,0,0,0,0,4.1093,4.1157,4.1223,4.1302,4.1329,4.1376,4.1415,4.1433,4.149,4.1513,4.1558,4.1613,4.1677,4.1718,4.178,4.1874,4.1889,4.1914,4.192,4.1926,4.1933,4.1984,4.1995,4.1877,4.1877,4.1877,0,0,4.1117,4.1169,4.1207,4.1303,4.1348,4.1412,4.1395,4.1465,4.1512,4.1523,4.1608,4.1643,4.1706,4.1797,4.1839,4.1828,4.1969,4.1933,4.1936,4.1942,4.199,4.2002,4.2011,4.1881,4.188,4.188,0,0,4.1194,4.1241,4.131,4.1355,4.1422,4.1453,4.1469,4.1538,4.1562,4.1648,4.1657,4.1713,4.1823,4.1867,4.1904,4.1996,4.1999,4.2015,4.205,4.2099,4.2108,4.2116,4.2147,4.2158,4.2023,4.2023,4.2023,0,4.1216,4.1314,4.1345,4.1414,4.1455,4.1468,4.1538,4.158,4.1664,4.1691,4.1678,4.1814,4.1858,4.1958,4.198,4.201,4.2029,4.2007,4.2104,4.2113,4.2121,4.2151,4.2163,4.2024,4.2024,4.2024,4.2024,0,4.1336,4.1404,4.1452,4.1533,4.158,4.1649,4.1689,4.1732,4.1746,4.1777,4.1863,4.1916,4.1988,4.2013,4.2027,4.2114,4.2105,4.2098,4.2072,4.2133,4.2162,4.2174,4.2026,4.2026,4.2025,4.2025,0,0,4.1418,4.1515,4.1532,4.1567,4.1642,4.1695,4.1763,4.1834,4.187,4.1927,4.1984,4.2076,4.2069,4.2111,4.2129,4.2172,4.2239,4.2159,4.2161,4.2171,4.2336,4.2341,4.2353,4.2242,4.2244,4.2246,4.233,0,4.1503,4.1626,4.1655,4.176,4.1822,4.1835,4.1895,4.1946,4.1977,4.2033,4.2066,4.213,4.2117,4.2142,4.2185,4.2222,4.2272,4.2216,4.2294,4.2296,4.2276,4.2369,4.2374,4.2451,4.2342,4.2344,4.2345,0,4.1618,4.1677,4.1788,4.1853,4.188,4.1933,4.2,4.2054,4.2111,4.213,4.2176,4.2191,4.2261,4.2232,4.2328,4.2289,4.2323,4.2345,4.2349,4.2356,4.2324,4.2377,4.2477,4.2487,4.2364,4.2362,4.2361,0,4.1664,4.1772,4.1852,4.1883,4.1961,4.1997,4.2031,4.2087,4.2127,4.2185,4.2211,4.2276,4.2311,4.236,4.2391,4.2368,4.2484,4.2458,4.25,4.2499,4.2523,4.2521,4.2628,4.2547,4.2547,4.2546,4.2546,0,4.1754,4.1821,4.1874,4.1923,4.1998,4.203,4.2103,4.2137,4.2186,4.2241,4.2256,4.2306,4.2344,4.24,4.2424,4.2499,4.2515,4.2531,4.2537,4.2529,4.2527,4.2551,4.2546,4.2549,4.2549,4.2548,4.2548,0,4.1818,4.1857,4.1944,4.2011,4.2029,4.2081,4.2137,4.2184,4.2215,4.2284,4.2302,4.235,4.2416,4.2452,4.2534,4.2551,4.2634,4.2637,4.2614,4.2616,4.2655,4.265,4.278,4.2798,4.2706,4.2707,4.2708,0,4.1873,4.1925,4.1996,4.2034,4.2069,4.213,4.2171,4.2204,4.2246,4.2315,4.2353,4.242,4.2475,4.258,4.2621,4.2684,4.2688,4.2729,4.2698,4.2688,4.2687,4.2683,4.2687,4.2734,4.2735,4.2736,4.2736,0,4.1965,4.1981,4.204,4.2105,4.2153,4.2206,4.2258,4.2288,4.2329,4.2375,4.2443,4.2486,4.257,4.2636,4.2701,4.2735,4.2742,4.2746,4.2759,4.2751,4.2735,4.2743,4.2628,4.2743,4.2742,4.2742,4.2741,4.2741,4.2025,4.2071,4.2128,4.2193,4.2235,4.2283,4.233,4.2367,4.2424,4.2495,4.2511,4.2582,4.2637,4.2726,4.2761,4.2816,4.2808,4.2827,4.2831,4.2835,4.2836,4.2727,4.2829,4.2829,4.2828,4.2828,4.2828,0,4.2116,4.2153,4.2212,4.2285,4.2335,4.2338,4.2395,4.2437,4.2499,4.255,4.2604,4.2681,4.2744,4.279,4.2854,4.2889,4.2894,4.2905,4.2902,4.2909,4.284,4.2822,4.29,4.29,4.29,4.29,4.29,4.29,4.217,4.2247,4.2269,4.2367,4.2403,4.2474,4.2506,4.2549,4.259,4.2675,4.2728,4.2758,4.2806,4.2874,4.2931,4.2943,4.2965,4.2975,4.2987,4.2922,4.2914,4.2907,4.289,4.298,4.2981,4.3051,4.3052,4.3052]}]]